Saint Martin Island, Sint Maarten

6:12 AM AST on February 21, 2017 (GMT -0400)
Princess Juliana International

Weather History for TNCM - November, 2011

Change the Weather History Date:

Friday, November 18, 2011

  Actual Average Record
Temperature  
Mean Temperature 81 °F -  
Max Temperature 86 °F 83 °F 89 °F (2001)
Min Temperature 76 °F 73 °F 73 °F (1996)
Cooling Degree Days 16    
Growing Degree Days 31 (Base 50)    
Moisture  
Dew Point 72 °F    
Average Humidity 74    
Maximum Humidity 83    
Minimum Humidity 61    
Precipitation  
Precipitation 0.04 in 0.14 in - ()
Sea Level Pressure  
Sea Level Pressure 29.91 in    
Wind  
Wind Speed 9 mph ()    
Max Wind Speed 91 mph    
Max Gust Speed -    
Visibility 7.5 miles    
Events Rain    
Averages and records for this station are not official NWS values.
T = Trace of Precipitation, MM = Missing Value Source: Averaged Metar Reports

Daily Weather History Graph

Daily Weather History Graph

Search for Another Location

Airport or City:

Trip Planner

Search our weather history database for the weather conditions in past years. The results will help you decide how hot, cold, wet, or windy it might be!

Date:

Astronomy

Nov. 18, 2011 Rise Set
Actual Time 6:19 AM AST 5:35 PM AST
Civil Twilight 5:56 AM AST 5:58 PM AST
Nautical Twilight 5:30 AM AST 6:24 PM AST
Astronomical Twilight 5:04 AM AST 6:50 PM AST
Moon No Moon Rise 12:21 PM AST (11/18)
Length of Visible Light 12h 01m
Length of Day
11h 15m
Waning Gibbous, 50% of the Moon is Illuminated
Nov 18
Waning Gibbous
Nov 25
New
Dec 2
First Quarter
Dec 10
Full
Dec 17
Last Quarter

Hourly Weather History & Observations

Time (AST) Temp. Heat Index Dew Point Humidity Pressure Visibility Wind Dir Wind Speed Gust Speed Precip Events Conditions
12:00 AM 78.8 °F - 73.4 °F 83% 29.89 in 6.2 mi East 9.2 mph - N/A   Partly Cloudy
1:00 AM 78.8 °F - 71.6 °F 78% 29.89 in 6.2 mi East 6.9 mph - N/A   Partly Cloudy
2:00 AM 80 °F - 72 °F 71% 29.89 in 19 mi ESE 8.1 mph - -   Partly Cloudy
2:00 AM 78.8 °F - 71.6 °F 78% 29.89 in 6.2 mi East 8.1 mph - N/A   Scattered Clouds
3:00 AM 78.8 °F - 71.6 °F 78% 29.89 in 6.2 mi East 9.2 mph - N/A Rain Light Rain Showers
5:00 AM 76 °F - 72 °F 82% 29.90 in 9 mi 2.3 mph - - Rain Light Rain Showers
5:00 AM 77.0 °F - 71.6 °F 83% 29.89 in 6.2 mi Variable 2.3 mph - N/A Rain Light Rain Showers
8:00 AM 82.4 °F 88.2 °F 73.4 °F 74% 29.92 in 6.2 mi East 5.8 mph - N/A   Partly Cloudy
9:00 AM 82.4 °F 87.2 °F 71.6 °F 70% 29.95 in 6.2 mi East 9.2 mph - N/A   Scattered Clouds
10:00 AM 82.4 °F 88.2 °F 73.4 °F 74% 29.95 in 6.2 mi East 8.1 mph - N/A   Scattered Clouds
11:00 AM 84 °F - 73 °F 61% 29.95 in 47 mi East 9.2 mph - -   Partly Cloudy
12:00 PM 82.4 °F 88.2 °F 73.4 °F 74% 29.92 in 6.2 mi East 9.2 mph - N/A   Scattered Clouds
1:00 PM 86.0 °F 91.8 °F 71.6 °F 62% 29.89 in 6.2 mi East 8.1 mph - N/A   Scattered Clouds
2:00 PM - - 71 °F % 29.89 in 44 mi NNE 90.9 mph - - Rain Light Rain Showers
2:00 PM 80.6 °F 84.6 °F 71.6 °F 74% 29.89 in 6.2 mi East 12.7 mph - N/A   Scattered Clouds
3:00 PM 86.0 °F 91.8 °F 71.6 °F 62% 29.86 in 6.2 mi ENE 10.4 mph - N/A   Scattered Clouds
4:00 PM 84.2 °F 89.6 °F 71.6 °F 66% 29.86 in 6.2 mi East 10.4 mph - N/A   Scattered Clouds
5:00 PM 82.4 °F 87.2 °F 71.6 °F 70% 29.89 in 6.2 mi NE 11.5 mph - N/A   Scattered Clouds
6:00 PM 80.6 °F 84.6 °F 71.6 °F 74% 29.89 in 6.2 mi ENE 10.4 mph - N/A   Partly Cloudy
7:00 PM 80.6 °F 84.6 °F 71.6 °F 74% 29.92 in 6.2 mi ENE 11.5 mph - N/A   Partly Cloudy
8:00 PM 79 °F - 72 °F 73% 29.94 in 9 mi ESE 11.5 mph - - Rain Light Rain Showers
8:00 PM 78.8 °F - 71.6 °F 78% 29.95 in 6.2 mi East 11.5 mph - N/A   Mostly Cloudy
9:00 PM 78.8 °F - 73.4 °F 83% 29.95 in 6.2 mi East 5.8 mph - N/A   Partly Cloudy
10:00 PM 78.8 °F - 73.4 °F 83% 29.95 in 6.2 mi ENE 6.9 mph - N/A   Partly Cloudy
11:00 PM 80 °F - 72 °F 72% 29.95 in 19 mi ENE 6.9 mph - - Rain Light Rain Showers
11:00 PM 78.8 °F - 73.4 °F 83% 29.95 in 6.2 mi ENE 6.9 mph - N/A   Scattered Clouds